This demonstration page uses our WeatherBlox Daily Observations layout. Learn more.

Left ArrowRight Arrow

44.8408, -93.29828

Hourly Observations for May 11, 2021

Temp ( °F °C ) Dew Point ( °F °C ) Humidity (%) Winds ( mph kmh ) Pressure ( in mb ) Visibility ( mi km ) Precip ( " mm )
12:53 am 00:53 Clear 39 3.9 31 -0.6 73 73 Calm 30.32 1027 10 16 0.00 0.00
1:53 am 01:53 Clear 41 5 28 -2.2 60 60 Calm 30.33 1027 10 16 0.00 0.00
2:53 am 02:53 Mostly Clear 38 3.3 28 -2.2 68 68 Calm 30.34 1028 10 16 0.00 0.00
3:53 am 03:53 Mostly Clear 38 3.3 27 -2.8 65 65 Calm 30.35 1028 10 16 0.00 0.00
4:53 am 04:53 Clear 36 2.2 28 -2.2 73 73 Calm 30.36 1028 10 16 0.00 0.00
5:53 am 05:53 Mostly Sunny 39 3.9 26 -3.3 60 60 Calm 30.37 1029 10 16 0.00 0.00
6:53 am 06:53 Sunny 40 4.4 28 -2.2 63 63 Calm 30.39 1029 10 16 0.00 0.00
7:53 am 07:53 Sunny 43 6.1 31 -0.6 63 63 Calm 30.41 1030 10 16 0.00 0.00
8:53 am 08:53 Sunny 48 8.9 27 -2.8 44 44 S 8 13 30.42 1030 10 16 0.00 0.00
9:53 am 09:53 Sunny 50 10 27 -2.8 41 41 S 3 6 30.44 1031 10 16 0.00 0.00
10:53 am 10:53 Mostly Sunny 53 11.7 26 -3.3 35 35 Calm 30.43 1030 10 16 0.00 0.00
11:53 am 11:53 Mostly Sunny 55 12.8 24 -4.4 30 30 WSW 3 6 30.42 1030 10 16 0.00 0.00
12:53 pm 12:53 Mostly Sunny 59 15 25 -3.9 27 27 N 7 11 30.40 1029 10 16 0.00 0.00
1:53 pm 13:53 Mostly Sunny 58 14.4 26 -3.3 29 29 VRB 3 6 30.36 1028 10 16 0.00 0.00
2:53 pm 14:53 Mostly Sunny 60 15.6 23 -5 24 24 NNW 10 17 30.35 1028 10 16 0.00 0.00
3:53 pm 15:53 Mostly Sunny 61 16.1 24 -4.4 24 24 Calm 30.34 1027 10 16 0.00 0.00
4:53 pm 16:53 Mostly Sunny 63 17.2 23 -5 22 22 undefined N/A 30.33 1027 10 16 0.00 0.00
5:53 pm 17:53 Mostly Sunny 61 16.1 23 -5 23 23 E 6 9 30.34 1027 10 16 0.00 0.00
6:53 pm 18:53 Mostly Sunny 61 16.1 21 -6.1 21 21 Calm 30.35 1028 10 16 0.00 0.00
7:53 pm 19:53 Sunny 60 15.6 21 -6.1 22 22 Calm 30.35 1028 10 16 0.00 0.00
8:53 pm 20:53 Clear 58 14.4 22 -5.6 25 25 SSE 5 7 30.37 1028 10 16 0.00 0.00
9:53 pm 21:53 Clear 53 11.7 26 -3.3 35 35 SE 6 9 30.39 1029 10 16 0.00 0.00
10:53 pm 22:53 Clear 52 11.1 26 -3.3 37 37 SE 5 7 30.39 1029 10 16 0.00 0.00
11:53 pm 23:53 Clear 52 11.1 25 -3.9 35 35 Calm 30.40 1029 10 16 0.00 0.00

Powered by AerisWeather